GW2438 Weather Reports


Display with metric or nautical units.
time (UTC)temp
F
wind
direction
speed
MPH
gust
MPH
rain 1hr
in
rain 24hr
in
rain mn
in
humidity
%
barometer
mb
20260506061529 55 243 3.0 7.0 0.00 0.00 0.00 81 1016.6
20260506060548 55 234 2.0 4.0 0.00 0.00 0.00 81 1016.4
20260506050516 57 240 3.0 4.0 0.00 0.00 0.00 78 1016.0
20260506044613 58 239 3.0 6.0 0.00 0.00 0.00 77 1015.9
20260506043612 58 252 2.0 6.0 0.00 0.00 0.00 77 1015.9
20260506042610 59 246 2.0 4.0 0.00 0.00 0.00 76 1015.8
20260506041608 59 253 1.0 3.0 0.00 0.00 0.00 76 1015.7
20260506040606 60 245 1.0 3.0 0.00 0.00 0.00 75 1015.7
20260506035605 60 248 2.0 3.0 0.00 0.00 0.00 74 1015.6
20260506034603 60 241 2.0 3.0 0.00 0.00 0.00 73 1015.5
20260506033602 61 243 1.0 2.0 0.00 0.00 0.00 72 1015.3
20260506032620 62 238 1.0 2.0 0.00 0.00 0.00 71 1015.1
20260506031558 62 250 1.0 3.0 0.00 0.00 0.00 71 1015.2
20260506030556 63 238 1.0 2.0 0.00 0.00 0.00 70 1015.2
20260506025614 63 237 1.0 3.0 0.00 0.00 0.00 69 1015.0
20260506024552 64 261 1.0 3.0 0.00 0.00 0.00 68 1015.0
20260506023551 65 239 1.0 4.0 0.00 0.00 0.00 68 1015.0
20260506022610 65 242 1.0 4.0 0.00 0.00 0.00 67 1015.1
20260506021547 65 258 2.0 4.0 0.00 0.00 0.00 67 1015.1
20260506020546 65 280 1.0 3.0 0.00 0.00 0.00 67 1015.1
20260506015544 65 259 2.0 4.0 0.00 0.00 0.00 68 1015.0
20260506014543 65 242 2.0 6.0 0.00 0.00 0.00 68 1015.0
20260506013541 65 230 2.0 6.0 0.00 0.00 0.00 68 1014.9
20260506012539 65 244 2.0 7.0 0.00 0.00 0.00 68 1015.1
20260506011538 65 236 3.0 7.0 0.00 0.00 0.00 67 1015.1
20260506010536 65 233 3.0 6.0 0.00 0.00 0.00 67 1015.1
20260506005534 65 254 3.0 6.0 0.00 0.00 0.00 66 1015.1
20260506004533 66 217 2.0 4.0 0.00 0.00 0.00 66 1015.1
20260506003531 65 255 4.0 8.0 0.00 0.00 0.00 66 1015.3
20260506002529 65 272 3.0 6.0 0.00 0.00 0.00 66 1015.3
20260506001547 66 239 2.0 3.0 0.00 0.00 0.00 65 1015.3
20260506000525 66 229 3.0 8.0 0.00 0.00 0.00 64 1015.3
20260505235524 67 221 1.0 3.0 0.00 0.00 0.00 64 1015.4
20260505234542 67 237 3.0 6.0 0.00 0.00 0.00 64 1015.6
20260505233520 67 228 2.0 7.0 0.00 0.00 0.00 63 1015.7
20260505232518 68 248 4.0 6.0 0.00 0.00 0.00 63 1015.8
20260505231516 68 232 3.0 6.0 0.00 0.00 0.00 61 1015.8
20260505230615 69 222 3.0 6.0 0.00 0.00 0.00 62 1015.9
20260505225633 69 237 3.0 4.0 0.00 0.00 0.00 62 1015.9
20260505224611 68 229 1.0 4.0 0.00 0.00 0.00 62 1016.1
20260505223609 68 181 2.0 4.0 0.00 0.00 0.00 62 1016.2
20260505222608 69 254 2.0 7.0 0.00 0.00 0.00 62 1016.2
20260505221606 68 240 3.0 8.0 0.00 0.00 0.00 63 1016.4
20260505220625 67 234 1.0 3.0 0.00 0.00 0.00 64 1016.4
20260505215603 67 254 1.0 3.0 0.00 0.00 0.00 64 1016.3
20260505214601 67 238 1.0 7.0 0.00 0.00 0.00 65 1016.4
20260505213600 67 266 2.0 4.0 0.00 0.00 0.00 63 1016.6
20260505212558 67 273 0.0 1.0 0.00 0.00 0.00 65 1016.6
20260505211556 67 227 1.0 2.0 0.00 0.00 0.00 64 1016.6
20260505210554 66 234 1.0 4.0 0.00 0.00 0.00 66 1016.6
20260505205553 66 254 1.0 2.0 0.00 0.00 0.00 65 1016.6
20260505204631 66 263 1.0 3.0 0.00 0.00 0.00 63 1016.6
20260505203549 66 200 2.0 4.0 0.00 0.00 0.00 65 1016.7
20260505202548 66 220 2.0 4.0 0.00 0.00 0.00 67 1016.6
20260505201546 65 209 1.0 2.0 0.00 0.00 0.00 67 1016.7
20260505200624 65 221 3.0 6.0 0.00 0.00 0.00 68 1016.7
20260505195542 64 226 1.0 4.0 0.00 0.00 0.00 69 1016.7
20260505194540 63 219 1.0 3.0 0.00 0.00 0.00 70 1016.7
20260505193538 64 254 3.0 7.0 0.00 0.00 0.00 70 1016.7
20260505192536 63 226 1.0 3.0 0.00 0.00 0.00 71 1016.7
20260505191535 63 228 2.0 4.0 0.00 0.00 0.00 70 1016.8
20260505190533 62 209 3.0 6.0 0.00 0.00 0.00 72 1016.7
20260505185611 62 229 3.0 7.0 0.00 0.00 0.00 72 1016.7
20260505184530 62 224 1.0 4.0 0.00 0.00 0.00 72 1016.6
20260505183548 61 204 1.0 3.0 0.00 0.00 0.00 74 1016.7
20260505182526 61 200 3.0 6.0 0.00 0.00 0.00 74 1016.6
20260505181524 60 242 1.0 4.0 0.00 0.00 0.00 75 1016.6
20260505180523 60 250 0.0 3.0 0.00 0.00 0.00 75 1016.6
20260505175542 60 228 1.0 4.0 0.00 0.00 0.00 76 1016.6
20260505174521 60 249 1.0 3.0 0.00 0.00 0.00 76 1016.6
20260505173518 59 237 1.0 2.0 0.00 0.00 0.00 77 1016.6
20260505172516 59 168 0.0 2.0 0.00 0.00 0.00 78 1016.4
20260505171615 58 246 1.0 4.0 0.00 0.00 0.00 78 1016.4
20260505170612 58 241 1.0 3.0 0.00 0.00 0.00 78 1016.4
20260505165611 58 244 1.0 4.0 0.00 0.00 0.00 79 1016.3
20260505164609 57 213 1.0 4.0 0.00 0.00 0.00 79 1016.3
20260505163607 57 227 1.0 3.0 0.00 0.00 0.00 79 1016.2
20260505162606 57 232 2.0 3.0 0.00 0.00 0.00 80 1016.2
20260505161604 57 235 1.0 3.0 0.00 0.00 0.00 80 1016.1
20260505160603 57 222 1.0 4.0 0.00 0.00 0.00 80 1016.0
20260505152556 56 206 2.0 4.0 0.00 0.00 0.00 81 1016.0
20260505151554 56 188 2.0 3.0 0.00 0.00 0.00 81 1015.9
20260505150552 56 229 2.0 7.0 0.00 0.00 0.00 81 1015.8
20260505140543 55 218 2.0 3.0 0.00 0.00 0.00 82 1015.3
20260505124610 55 228 2.0 4.0 0.00 0.00 0.00 83 1014.6
20260505123527 55 213 2.0 6.0 0.00 0.00 0.00 83 1014.5
20260505122525 55 234 1.0 3.0 0.00 0.00 0.00 83 1014.5
20260505121523 55 224 1.0 2.0 0.00 0.00 0.00 83 1014.5
20260505120521 55 184 1.0 2.0 0.00 0.00 0.00 83 1014.4
20260505115519 55 237 0.0 2.0 0.00 0.00 0.00 83 1014.3
20260505114519 55 204 0.0 1.0 0.00 0.00 0.00 83 1014.4
20260505113516 55 238 1.0 3.0 0.00 0.00 0.00 83 1014.4
20260505112615 55 210 2.0 4.0 0.00 0.00 0.00 83 1014.3
20260505111613 55 211 2.0 3.0 0.00 0.00 0.00 83 1014.3
20260505110611 55 264 0.0 3.0 0.00 0.00 0.00 83 1014.1
20260505101643 55 213 1.0 2.0 0.00 0.00 0.00 83 1014.0
20260505100601 55 215 1.0 2.0 0.00 0.00 0.00 84 1013.8
20260505095600 55 237 1.0 2.0 0.00 0.00 0.00 84 1013.8
20260505094558 55 214 2.0 6.0 0.00 0.00 0.00 84 1013.7
20260505093555 55 228 2.0 4.0 0.00 0.00 0.00 84 1013.7
20260505092554 55 197 1.0 4.0 0.00 0.00 0.00 84 1013.7
20260505091553 54 185 2.0 3.0 0.00 0.00 0.00 84 1013.6
20260505090552 54 173 0.0 2.0 0.00 0.00 0.00 85 1013.6
20260505085549 54 221 1.0 1.0 0.00 0.00 0.00 85 1013.4
20260505084548 54 230 1.0 3.0 0.00 0.00 0.00 86 1013.5
20260505083546 53 248 1.0 2.0 0.00 0.00 0.00 86 1013.4
20260505082544 53 214 1.0 2.0 0.00 0.00 0.00 86 1013.4
20260505081545 53 220 1.0 3.0 0.00 0.00 0.00 85 1013.5
20260505080540 53 247 2.0 6.0 0.00 0.00 0.00 85 1013.5
20260505075539 53 233 3.0 6.0 0.00 0.00 0.00 85 1013.3
20260505074537 53 210 1.0 3.0 0.00 0.00 0.00 85 1013.2
20260505073556 53 233 1.0 3.0 0.00 0.00 0.00 85 1013.0
20260505072534 53 240 3.0 7.0 0.00 0.00 0.00 84 1012.8
20260505071532 53 233 1.0 3.0 0.00 0.00 0.00 84 1012.8
20260505070530 53 229 2.0 6.0 0.00 0.00 0.00 83 1012.8